Regional Weather Roundup
Issued by NWS Midland/Odessa, TX

Home | Current Version | Previous Version | Text Only | Print | Product List | Glossary On
Versions: 1 2 3 4 5 6 7 8 9 10 11 12 13 14 15 16 17 18 19 20 21 22 23 24 25 26 27 28 29 30 31 32 33 34 35 36 37 38 39 40 41 42 43 44 45 46 47 48 49 50
000
ASUS44 KMAF 100610
RWRMAF
MIDLAND AREA WEATHER ROUNDUP
NATIONAL WEATHER SERVICE MIDLAND TX
1200 AM CST SAT DEC 10 2016

...IN SOUTHWEST TEXAS AND SOUTHEAST NEW MEXICO...

CITY           SKY/WX    TMP DP  RH WIND       PRES   REMARKS
ALPINE         CLOUDY    43  37  80 W10       30.35F WCI  37
ANDREWS        FAIR      30  30 100 S6        30.30S WCI  24
ARTESIA        CLOUDY    27  27 100 CALM      30.26S
BIG SPRING     CLOUDY    32  29  86 SE8       30.36S WCI  25
CARLSBAD       CLOUDY    27  27 100 CALM      30.25R
DRYDEN           N/A     32  30  92 CALM      30.37S
FORT STOCKTON  CLOUDY    37  35  92 S9        30.28S WCI  30
GUAD PASS      NOT AVBL
HOBBS          CLOUDY    28  28 100 E6        30.28S WCI  22
MARFA          FOG       25  23  93 N3        30.34F VSB 1
MIDLAND AIRPK  CLOUDY    35  30  82 SE8       30.32F WCI  29
MIDLAND INTL   CLOUDY    33  29  85 S7        30.31S WCI  27
ODESSA         CLOUDY    34  29  82 S9        30.30F WCI  27
PECOS          CLOUDY    33  32  94 NE7       30.29R WCI  27
PRESIDIO       FAIR      38  34  85 N7        30.35R WCI  32
SEMINOLE       CLOUDY    31  30  96 CALM      30.30S
SNYDER         CLOUDY    32  28  83 S7        30.34F WCI  26
WINK           CLOUDY    34  32  92 SE8       30.27S WCI  27
$$
...OTHER STATIONS IN TEXAS...

CITY           SKY/WX    TMP DP  RH WIND       PRES   REMARKS
ABILENE        CLEAR     34  23  64 S10       30.39F WCI  26
AMARILLO       CLOUDY    29  27  92 S18       30.21F WCI  16
AUSTIN         PTCLDY    35  30  82 W3        30.50F
BROWNSVILLE    CLOUDY    46  34  62 NW13G23   30.44F
CORPUS CHRISTI CLOUDY    48  35  60 N10       30.49F
DALLAS FTW     MOCLDY    33  23  66 SE3       30.50S
DEL RIO        CLOUDY    42  31  64 E9        30.44F WCI  37
EL PASO        PTCLDY    37  29  72 NE5       30.31S WCI  33
HOUSTON INT    CLOUDY    45  28  51 NE6       30.52S
LUBBOCK        CLOUDY    31  27  85 S10       30.27F WCI  22
SAN ANGELO     CLOUDY    35  26  69 S7        30.39F WCI  29
SAN ANTONIO    MOCLDY    38  26  62 CALM      30.49F
WACO           CLOUDY    37  28  70 E6        30.50F WCI  32
WICHITA FALLS  NOT AVBL
$$
...OTHER LOCATIONS IN NEW MEXICO...

CITY           SKY/WX    TMP DP  RH WIND       PRES   REMARKS
ALAMAGORDO     NOT AVBL
ALBUQUERQUE    CLOUDY    35  26  69 CALM      30.31R
CANNON AFB     CLOUDY    26  26 100 S3        30.22S
CLOVIS         CLOUDY    27  21  80 S7        30.23R WCI  19
HOLLOMAN AFB   CLOUDY    30  21  70 NE7       30.35S WCI  23
ROSWELL        CLOUDY    26  22  84 CALM      30.24S
RUIDOSO        CLOUDY    37  25  60 W6        30.31F WCI  33
SANTA FE       CLOUDY    32  23  69 CALM      30.29S
TRUTH OR CONSE PTCLDY    36  26  67 W5        30.30S WCI  32
TUCUMCARI      CLOUDY    31  25  78 S5        30.15S WCI  26
$$




USA.gov is the U.S. government's official web portal to all federal, state and local government web resources and services.